{"data":{"norad_id":43076,"intl_designator":"2017-083G","name":"IRIDIUM 137","alt_names":[],"object_type":"PAYLOAD","status":"ACTIVE","operator":null,"country":"US","launch_date":"2017-12-23","launch_site_code":"AFWTR","launch_vehicle":null,"mission":null,"orbit_class":"UNKNOWN","rcs_meters":null,"size_class":null,"mass_kg":null,"dimensions":null,"purposes":["comms"],"wikipedia_slug":null,"has_3d_model":false,"image_url":null,"decayed_at":null,"tle_current":{"epoch":"2026-09-20T00:34:39.140832Z","epoch_age_seconds":56563,"freshness":"FRESH","line1":"1 43076U 17083G   26263.02406413  .00000115  00000+0  33956-4 0  9994","line2":"2 43076  86.3916 282.5142 0002007  97.9943 262.1481 14.34217760457767","mean_motion":14.3421776,"eccentricity":0.0002007,"inclination_deg":86.3916,"raan_deg":282.5142,"arg_perigee_deg":97.9943,"mean_anomaly_deg":262.1481,"bstar":3.3956e-5,"rev_number":45776,"period_min":100.40316332438,"perigee_km":776.2309512041,"apogee_km":779.1032909783,"semimajor_km":7155.8041210912,"source":"CELESTRAK","updated_at":"2026-09-20T09:00:36.327588Z"}}}